Simultaneous Nadir Overpasses (SNOs) Predictions

Prediction of SNOs between GOES-16 and FY3D Satellite Orbit:

Table of predicted SNOs for the next 14.0 days since TLE Epoch: 2/17/2024
Index Date Time (GOES-16) GOES-16 Lat,Lon FY3D Lat,Lon Distance(km) Time Diff (sec)
1 02/17/2024 07:11:16 -0.07, -75.21 -0.68, -72.68 289.24 80
2 02/18/2024 19:33:35 0.06, -75.21 -0.61, -78.03 322.37 80
3 02/19/2024 19:17:46 0.06, -75.22 0.44, -73.56 189.41 80
4 02/21/2024 07:39:57 -0.05, -75.24 0.77, -78.89 416.35 80
5 02/22/2024 07:18:48 -0.05, -75.25 -0.22, -74.40 95.78 80
6 02/24/2024 19:25:18 0.04, -75.27 0.02, -75.28 1.94 80
7 02/27/2024 07:29:00 -0.03, -75.33 0.18, -76.13 92.55 80
8 02/28/2024 07:07:51 -0.04, -75.34 -0.89, -71.66 420.61 80
9 02/29/2024 19:32:49 0.03, -75.37 -0.34, -77.02 188.29 80
10 03/01/2024 19:14:20 0.03, -75.39 0.67, -72.53 325.19 80
